Carl — WDG6376 — position and weather

sailwx.info

Track history (hours):
 
Tides and Currents Weather Stations Pressure Air Temp Water Temp Dewpoint Dewpoint Depression Visibility Wind Speed Wind Dir Waves Ship Positions

Carl

Owner: POINT COMFORT TOWING CO., INC., POINT COMFORT, TX. More information available from US FCC via Universal Licensing System and Coast Guard Vessel Documentation Center.

Last reported at 2018-Feb-22 04:20 UTC. Time now 2018-Feb-22 17:15 UTC.
Position N 30°11' W 093°19'.

Length 32 m; draft 4 m.

Type: Towing. MMSI: 367556330.

Date/timePositionNaut miles runAvg speedWind from/ knotsBaromVisibWave heightAir tempDewpointWater temp
2018-Feb-22 04:20N 30°11' W 093°19'0 0.0
2018-Feb-22 03:37N 30°11' W 093°19'0 0.0
2018-Feb-22 00:30N 30°11' W 093°19'0 0.0
2018-Feb-22 00:00N 30°11' W 093°19'1 1.8
2018-Feb-21 23:18N 30°12' W 093°18'1 1.3
2018-Feb-21 22:48N 30°11' W 093°18'0 0.6
2018-Feb-21 22:20N 30°11' W 093°19'2 4.6
2018-Feb-21 22:00N 30°10' W 093°19'1 0.7
2018-Feb-21 20:05N 30°11' W 093°19'0 0.0
2018-Feb-21 19:19N 30°11' W 093°19'0 0.0
2018-Feb-21 18:58N 30°11' W 093°19'0 0.0
2018-Feb-21 18:28N 30°11' W 093°19'0 0.0
2018-Feb-21 18:00N 30°11' W 093°19'0 0.0
2018-Feb-21 17:30N 30°11' W 093°19'0 0.0
2018-Feb-21 16:56N 30°11' W 093°19'0 0.0
2018-Feb-21 16:26N 30°11' W 093°19'0 0.0
2018-Feb-21 15:58N 30°11' W 093°19'0 0.1
2018-Feb-21 15:30N 30°11' W 093°19'0 0.2
2018-Feb-21 15:00N 30°11' W 093°19'1 1.4
2018-Feb-21 14:30N 30°10' W 093°19'1 1.8
2018-Feb-21 14:00N 30°09' W 093°20'2 3.1
2018-Feb-21 13:30N 30°11' W 093°19'4 7.1
2018-Feb-21 13:00N 30°13' W 093°15'0 0.0
2018-Feb-21 12:29N 30°13' W 093°15'0 0.0
2018-Feb-21 12:00N 30°13' W 093°15'0 0.0
2018-Feb-21 11:30N 30°13' W 093°15'0 0.0
2018-Feb-21 11:00N 30°13' W 093°15'0 0.0
2018-Feb-21 10:28N 30°13' W 093°15'0 0.0
2018-Feb-21 10:00N 30°13' W 093°15'0 0.0
2018-Feb-21 09:30N 30°13' W 093°15'0 0.0
2018-Feb-21 09:00N 30°13' W 093°15'0 0.0
2018-Feb-21 08:30N 30°13' W 093°15'0 0.0
2018-Feb-21 07:54N 30°13' W 093°15'0 0.0
2018-Feb-21 07:30N 30°13' W 093°15'0 0.0
2018-Feb-21 06:51N 30°13' W 093°15'0 0.0
2018-Feb-21 06:30N 30°13' W 093°15'0 0.0
2018-Feb-21 05:50N 30°13' W 093°15'0 0.0
2018-Feb-21 05:30N 30°13' W 093°15'0 0.0
2018-Feb-21 05:00N 30°13' W 093°15'0 0.0
2018-Feb-21 04:30N 30°13' W 093°15'0 0.0
2018-Feb-21 04:00N 30°13' W 093°15'0 0.0
2018-Feb-21 03:30N 30°13' W 093°15'0 0.0
2018-Feb-21 03:00N 30°13' W 093°15'2 4.9
2018-Feb-21 02:30N 30°11' W 093°18'1 1.2
2018-Feb-21 02:00N 30°11' W 093°18'2 3.4
2018-Feb-21 01:30N 30°10' W 093°19'2 3.6
2018-Feb-21 01:00N 30°08' W 093°20'2 5.0
2018-Feb-21 00:30N 30°05' W 093°20'2 4.9
2018-Feb-21 00:00N 30°03' W 093°20'2 3.3
2018-Feb-20 23:30N 30°05' W 093°20'4 8.0
2018-Feb-20 23:00N 30°09' W 093°20'2 4.7
2018-Feb-20 22:31N 30°11' W 093°19'4 7.4
2018-Feb-20 22:00N 30°13' W 093°15'0 0.0
2018-Feb-20 21:30N 30°13' W 093°15'0 0.0
2018-Feb-20 21:00N 30°13' W 093°15'0 0.0
2018-Feb-20 20:30N 30°13' W 093°15'0 0.0
2018-Feb-20 20:00N 30°13' W 093°15'0 0.0
2018-Feb-20 19:30N 30°13' W 093°15'0 0.0
2018-Feb-20 19:00N 30°13' W 093°15'0 0.0
2018-Feb-20 18:30N 30°13' W 093°15'0 0.0
2018-Feb-20 18:00N 30°13' W 093°15'0 0.0
2018-Feb-20 17:30N 30°13' W 093°15'0 0.3
2018-Feb-20 17:00N 30°13' W 093°15'0 0.0
2018-Feb-20 16:30N 30°13' W 093°15'0 0.0
2018-Feb-20 16:00N 30°13' W 093°15'0 0.0
2018-Feb-20 15:30N 30°13' W 093°15'1 1.4
2018-Feb-20 15:00N 30°12' W 093°16'4 8.7
2018-Feb-20 14:30N 30°09' W 093°20'1 2.9
2018-Feb-20 14:00N 30°11' W 093°19'0 0.0
2018-Feb-20 13:30N 30°11' W 093°19'0 0.3
2018-Feb-20 13:00N 30°11' W 093°19'0 0.0
2018-Feb-20 12:29N 30°11' W 093°19'0 0.0
2018-Feb-20 11:58N 30°11' W 093°19'0 0.0
2018-Feb-20 11:30N 30°11' W 093°19'0 0.0
2018-Feb-20 11:00N 30°11' W 093°19'0 0.0
2018-Feb-20 10:29N 30°11' W 093°19'0 0.0
2018-Feb-20 10:00N 30°11' W 093°19'0 0.0
2018-Feb-20 09:30N 30°11' W 093°19'0 0.0
2018-Feb-20 08:59N 30°11' W 093°19'0 0.0
2018-Feb-20 08:30N 30°11' W 093°19'0 0.0
2018-Feb-20 07:45N 30°11' W 093°19'0 0.0
2018-Feb-20 07:26N 30°11' W 093°19'0 0.0
2018-Feb-20 07:00N 30°11' W 093°19'0 0.0
2018-Feb-20 06:29N 30°11' W 093°19'0 0.0
2018-Feb-20 05:59N 30°11' W 093°19'0 0.0
2018-Feb-20 05:29N 30°11' W 093°19'0 0.0
2018-Feb-20 05:00N 30°11' W 093°19'0 0.0
2018-Feb-20 04:30N 30°11' W 093°19'0 0.0
2018-Feb-20 03:59N 30°11' W 093°19'0 0.0
2018-Feb-20 03:30N 30°11' W 093°19'0 0.0
2018-Feb-20 03:00N 30°11' W 093°19'0 0.0
2018-Feb-20 02:30N 30°11' W 093°19'2 3.2
2018-Feb-20 02:00N 30°09' W 093°20'0 0.2
2018-Feb-20 01:30N 30°09' W 093°20'2 3.5
2018-Feb-20 01:00N 30°08' W 093°20'3 5.2
2018-Feb-20 00:31N 30°05' W 093°20'2 4.8
2018-Feb-20 00:00N 30°03' W 093°20'1 2.1
2018-Feb-19 23:29N 30°04' W 093°20'3 7.1
2018-Feb-19 23:00N 30°07' W 093°20'4 7.9
2018-Feb-19 22:30N 30°11' W 093°19'3 6.6
2018-Feb-19 21:59N 30°13' W 093°15'0 0.0
2018-Feb-19 21:30N 30°13' W 093°15'0 0.0
2018-Feb-19 21:00N 30°13' W 093°15'0 0.0
2018-Feb-19 20:27N 30°13' W 093°15'0 0.0
2018-Feb-19 20:00N 30°13' W 093°15'0 0.0
2018-Feb-19 19:30N 30°13' W 093°15'0 0.0
2018-Feb-19 19:00N 30°13' W 093°15'0 0.0
2018-Feb-19 18:24N 30°13' W 093°15'0 0.0
2018-Feb-19 17:59N 30°13' W 093°15'0 0.0
2018-Feb-19 17:30N 30°13' W 093°15'0 0.0
2018-Feb-19 16:57N 30°13' W 093°15'0 0.0
2018-Feb-19 16:26N 30°13' W 093°15'0 0.0
2018-Feb-19 15:58N 30°13' W 093°15'0 0.0
2018-Feb-19 15:30N 30°13' W 093°15'0 0.0
2018-Feb-19 15:00N 30°13' W 093°15'0 0.0
2018-Feb-19 14:26N 30°13' W 093°15'0 0.0
2018-Feb-19 13:55N 30°13' W 093°15'0 0.0
2018-Feb-19 13:30N 30°13' W 093°15'0 0.0
2018-Feb-19 13:00N 30°13' W 093°15'0 0.0
2018-Feb-19 12:30N 30°13' W 093°15'0 0.0
2018-Feb-19 12:00N 30°13' W 093°15'0 0.0
2018-Feb-19 11:30N 30°13' W 093°15'0 0.0
2018-Feb-19 11:00N 30°13' W 093°15'0 0.0
2018-Feb-19 10:30N 30°13' W 093°15'0 0.0
2018-Feb-19 10:00N 30°13' W 093°15'0 0.0
2018-Feb-19 09:29N 30°13' W 093°15'0 0.0
2018-Feb-19 09:00N 30°13' W 093°15'0 0.0
2018-Feb-19 08:30N 30°13' W 093°15'0 0.0
2018-Feb-19 08:00N 30°13' W 093°15'0 0.0
2018-Feb-19 07:30N 30°13' W 093°15'0 0.0
2018-Feb-19 07:00N 30°13' W 093°15'0 0.0
2018-Feb-19 06:30N 30°13' W 093°15'0 0.0
2018-Feb-19 06:00N 30°13' W 093°15'0 0.0
2018-Feb-19 05:30N 30°13' W 093°15'0 0.0
2018-Feb-19 05:00N 30°13' W 093°15'0 0.0
2018-Feb-19 04:30N 30°13' W 093°15'0 0.0
2018-Feb-19 04:00N 30°13' W 093°15'0 0.0
2018-Feb-19 03:30N 30°13' W 093°15'0 0.0
2018-Feb-19 03:00N 30°13' W 093°15'0 0.0
2018-Feb-19 02:30N 30°13' W 093°15'0 0.0
2018-Feb-19 02:00N 30°13' W 093°15'0 0.0
2018-Feb-19 01:30N 30°13' W 093°15'0 0.0
2018-Feb-19 01:00N 30°13' W 093°15'0 0.0
2018-Feb-19 00:30N 30°13' W 093°15'0 0.0
2018-Feb-19 00:00N 30°13' W 093°15'0 0.0
2018-Feb-18 23:30N 30°13' W 093°15'0 0.0
2018-Feb-18 23:00N 30°13' W 093°15'0 0.0
2018-Feb-18 22:30N 30°13' W 093°15'0 0.0
2018-Feb-18 21:59N 30°13' W 093°15'1 2.6
2018-Feb-18 21:30N 30°12' W 093°17'3 1.9
2018-Feb-18 19:44N 30°10' W 093°19'0 1.5
2018-Feb-18 19:30N 30°09' W 093°20'1 2.9
2018-Feb-18 19:00N 30°11' W 093°19'0 0.0
2018-Feb-18 18:30N 30°11' W 093°19'0 0.0
2018-Feb-18 18:00N 30°11' W 093°19'0 0.0
2018-Feb-18 17:30N 30°11' W 093°19'0 0.0
2018-Feb-18 17:00N 30°11' W 093°19'0 0.0
2018-Feb-18 16:30N 30°11' W 093°19'0 0.0
2018-Feb-18 16:00N 30°11' W 093°19'0 0.0
2018-Feb-18 15:30N 30°11' W 093°19'0 0.0
2018-Feb-18 14:59N 30°11' W 093°19'0 0.0
2018-Feb-18 14:30N 30°11' W 093°19'0 0.0
2018-Feb-18 14:00N 30°11' W 093°19'0 0.0
2018-Feb-18 13:30N 30°11' W 093°19'0 0.0
2018-Feb-18 13:00N 30°11' W 093°19'0 0.0
2018-Feb-18 12:30N 30°11' W 093°19'0 0.0
2018-Feb-18 12:00N 30°11' W 093°19'0 0.0
2018-Feb-18 11:30N 30°11' W 093°19'0 0.0
2018-Feb-18 11:00N 30°11' W 093°19'0 0.0
2018-Feb-18 10:30N 30°11' W 093°19'0 0.0
2018-Feb-18 09:56N 30°11' W 093°19'0 0.0
2018-Feb-18 09:30N 30°11' W 093°19'0 0.0
2018-Feb-18 09:00N 30°11' W 093°19'0 0.0
2018-Feb-18 08:28N 30°11' W 093°19'0 0.0
2018-Feb-18 08:00N 30°11' W 093°19'0 0.0
2018-Feb-18 07:30N 30°11' W 093°19'0 0.0
2018-Feb-18 07:00N 30°11' W 093°19'0 0.0
2018-Feb-18 06:29N 30°11' W 093°19'0 0.0
2018-Feb-18 06:00N 30°11' W 093°19'0 0.0
2018-Feb-18 05:30N 30°11' W 093°19'0 0.0
2018-Feb-18 05:00N 30°11' W 093°19'0 0.0
2018-Feb-18 04:30N 30°11' W 093°19'0 0.0
2018-Feb-18 03:59N 30°11' W 093°19'0 0.0
2018-Feb-18 03:29N 30°11' W 093°19'0 0.0
2018-Feb-18 03:00N 30°11' W 093°19'0 0.0
2018-Feb-18 02:30N 30°11' W 093°19'1 1.2
2018-Feb-18 02:00N 30°10' W 093°19'1 1.4
2018-Feb-18 01:30N 30°10' W 093°20'0 0.0
2018-Feb-18 01:00N 30°10' W 093°20'1 1.4
2018-Feb-18 00:30N 30°09' W 093°20'3 5.6
2018-Feb-18 00:00N 30°06' W 093°20'3 5.8
2018-Feb-17 23:31N 30°03' W 093°20'3 5.2
2018-Feb-17 23:00N 30°06' W 093°20'4 8.7
2018-Feb-17 22:30N 30°10' W 093°19'4 8.2
2018-Feb-17 22:00N 30°13' W 093°15'0 0.0
2018-Feb-17 21:30N 30°13' W 093°15'0 0.0
2018-Feb-17 21:00N 30°13' W 093°15'0 0.0
2018-Feb-17 20:29N 30°13' W 093°15'0 0.4
2018-Feb-17 19:59N 30°13' W 093°15'0 0.0
2018-Feb-17 18:09N 30°13' W 093°15'0 0.0
2018-Feb-17 18:00N 30°13' W 093°15'0 0.0
2018-Feb-17 17:30N 30°13' W 093°15'0 0.0
2018-Feb-17 17:00N 30°13' W 093°15'0 0.0
2018-Feb-17 16:29N 30°13' W 093°15'0 0.0
2018-Feb-17 16:00N 30°13' W 093°15'0 0.0
2018-Feb-17 15:30N 30°13' W 093°15'0 0.0
2018-Feb-17 15:00N 30°13' W 093°15'0 0.0
2018-Feb-17 14:30N 30°13' W 093°15'0 0.0
2018-Feb-17 14:00N 30°13' W 093°15'0 0.0
2018-Feb-17 13:30N 30°13' W 093°15'0 0.0
2018-Feb-17 13:00N 30°13' W 093°15'0 0.0
2018-Feb-17 12:30N 30°13' W 093°15'0 0.0
2018-Feb-17 12:00N 30°13' W 093°15'0 0.0
2018-Feb-17 11:30N 30°13' W 093°15'0 0.0
2018-Feb-17 11:00N 30°13' W 093°15'0 0.0
2018-Feb-17 10:30N 30°13' W 093°15'0 0.0
2018-Feb-17 10:00N 30°13' W 093°15'0 0.0
2018-Feb-17 09:30N 30°13' W 093°15'0 0.0
2018-Feb-17 09:00N 30°13' W 093°15'0 0.0
2018-Feb-17 08:30N 30°13' W 093°15'0 0.0
2018-Feb-17 08:00N 30°13' W 093°15'0 0.0
2018-Feb-17 07:30N 30°13' W 093°15'0 0.0
2018-Feb-17 07:00N 30°13' W 093°15'0 0.0
2018-Feb-17 06:30N 30°13' W 093°15'0 0.0
2018-Feb-17 06:00N 30°13' W 093°15'0 0.0
2018-Feb-17 05:30N 30°13' W 093°15'0 0.0
2018-Feb-17 05:00N 30°13' W 093°15'0 0.0
2018-Feb-17 04:30N 30°13' W 093°15'0 0.0
2018-Feb-17 04:00N 30°13' W 093°15'0 0.0
2018-Feb-17 03:30N 30°13' W 093°15'0 0.0
2018-Feb-17 02:59N 30°13' W 093°15'0 0.0
2018-Feb-17 02:30N 30°13' W 093°15'0 0.0
2018-Feb-17 02:00N 30°13' W 093°15'0 0.0
2018-Feb-17 01:28N 30°13' W 093°15'0 0.0
2018-Feb-17 01:00N 30°13' W 093°15'0 0.0
2018-Feb-17 00:30N 30°13' W 093°15'0 0.0
2018-Feb-17 00:00N 30°13' W 093°15'0 0.0
2018-Feb-16 23:30N 30°13' W 093°15'0 0.0
2018-Feb-16 23:00N 30°13' W 093°15'0 0.0
2018-Feb-16 22:30N 30°13' W 093°15'0 0.0
2018-Feb-16 22:00N 30°13' W 093°15'0 0.0
2018-Feb-16 21:28N 30°13' W 093°15'0 0.0
2018-Feb-16 20:54N 30°13' W 093°15'0 0.0
2018-Feb-16 20:30N 30°13' W 093°15'0 0.0
2018-Feb-16 19:52N 30°13' W 093°15'0 0.0
2018-Feb-16 19:23N 30°13' W 093°15'2 6.2
2018-Feb-16 19:00N 30°12' W 093°18'1 0.7
2018-Feb-16 17:02N 30°11' W 093°19'0 0.2
2018-Feb-16 17:00N 30°11' W 093°19'4 7.4
2018-Feb-16 16:30N 30°13' W 093°15'0 0.0
2018-Feb-16 16:00N 30°13' W 093°15'0 0.0
2018-Feb-16 15:30N 30°13' W 093°15'0 0.0
2018-Feb-16 15:00N 30°13' W 093°15'0 0.0
2018-Feb-16 14:30N 30°13' W 093°15'0 0.0
2018-Feb-16 14:00N 30°13' W 093°15'0 0.0
2018-Feb-16 13:30N 30°13' W 093°15'0 0.0
2018-Feb-16 13:00N 30°13' W 093°15'0 0.0
2018-Feb-16 12:30N 30°13' W 093°15'0 0.0
2018-Feb-16 12:00N 30°13' W 093°15'0 0.0
2018-Feb-16 11:30N 30°13' W 093°15'0 0.0
2018-Feb-16 11:00N 30°13' W 093°15'0 0.0
2018-Feb-16 10:30N 30°13' W 093°15'0 0.0
2018-Feb-16 10:00N 30°13' W 093°15'0 0.0
2018-Feb-16 09:30N 30°13' W 093°15'0 0.0
2018-Feb-16 09:00N 30°13' W 093°15'0 0.0
2018-Feb-16 08:30N 30°13' W 093°15'0 0.0
2018-Feb-16 08:00N 30°13' W 093°15'0 0.0
2018-Feb-16 07:30N 30°13' W 093°15'0 0.0
2018-Feb-16 07:00N 30°13' W 093°15'0 0.0
2018-Feb-16 06:30N 30°13' W 093°15'0 0.0
2018-Feb-16 06:00N 30°13' W 093°15'0 0.0
2018-Feb-16 05:30N 30°13' W 093°15'0 0.0
2018-Feb-16 05:00N 30°13' W 093°15'0 0.0
2018-Feb-16 04:30N 30°13' W 093°15'0 0.0
2018-Feb-16 04:00N 30°13' W 093°15'0 0.0
2018-Feb-16 03:30N 30°13' W 093°15'0 0.0
2018-Feb-16 03:00N 30°13' W 093°15'0 0.0
2018-Feb-16 02:30N 30°13' W 093°15'0 0.0
2018-Feb-16 02:00N 30°13' W 093°15'0 0.0
2018-Feb-16 01:30N 30°13' W 093°15'0 0.0
2018-Feb-16 01:00N 30°13' W 093°15'0 0.0
2018-Feb-16 00:28N 30°13' W 093°15'0 0.0
2018-Feb-16 00:00N 30°13' W 093°15'0 0.0
2018-Feb-15 23:30N 30°13' W 093°15'0 0.0
2018-Feb-15 23:00N 30°13' W 093°15'0 0.0
2018-Feb-15 22:29N 30°13' W 093°15'0 0.0
2018-Feb-15 21:59N 30°13' W 093°15'0 0.0
2018-Feb-15 21:29N 30°13' W 093°15'0 0.0
2018-Feb-15 21:00N 30°13' W 093°15'0 0.0
2018-Feb-15 20:16N 30°13' W 093°15'0 0.0
2018-Feb-15 19:57N 30°13' W 093°15'0 0.0
2018-Feb-15 19:29N 30°13' W 093°15'0 0.0
2018-Feb-15 18:59N 30°13' W 093°15'0 0.0
2018-Feb-15 18:30N 30°13' W 093°15'0 0.0
2018-Feb-15 18:00N 30°13' W 093°15'0 0.0
2018-Feb-15 17:30N 30°13' W 093°15'0 0.0
2018-Feb-15 17:00N 30°13' W 093°15'0 0.0
2018-Feb-15 16:30N 30°13' W 093°15'0 0.0
2018-Feb-15 16:00N 30°13' W 093°15'0 0.0
2018-Feb-15 15:30N 30°13' W 093°15'0 0.0
2018-Feb-15 15:00N 30°13' W 093°15'0 0.0
2018-Feb-15 14:30N 30°13' W 093°15'0 0.0
2018-Feb-15 14:00N 30°13' W 093°15'0 0.0
2018-Feb-15 13:30N 30°13' W 093°15'0 0.0
2018-Feb-15 13:00N 30°13' W 093°15'0 0.0
2018-Feb-15 12:30N 30°13' W 093°15'0 0.0
2018-Feb-15 12:00N 30°13' W 093°15'0 0.0
2018-Feb-15 11:30N 30°13' W 093°15'0 0.0
2018-Feb-15 11:00N 30°13' W 093°15'0 0.0
2018-Feb-15 10:29N 30°13' W 093°15'0 0.0
2018-Feb-15 10:00N 30°13' W 093°15'0 0.0
2018-Feb-15 09:30N 30°13' W 093°15'0 0.0
2018-Feb-15 09:00N 30°13' W 093°15'0 0.0
2018-Feb-15 08:30N 30°13' W 093°15'0 0.0
2018-Feb-15 08:00N 30°13' W 093°15'0 0.0
2018-Feb-15 07:30N 30°13' W 093°15'0 0.0
2018-Feb-15 07:00N 30°13' W 093°15'0 0.0
2018-Feb-15 06:30N 30°13' W 093°15'0 0.0
2018-Feb-15 06:00N 30°13' W 093°15'0 0.0
2018-Feb-15 05:30N 30°13' W 093°15'0 0.0
2018-Feb-15 05:00N 30°13' W 093°15'0 0.0
2018-Feb-15 04:30N 30°13' W 093°15'0 0.0
2018-Feb-15 04:00N 30°13' W 093°15'0 0.0
2018-Feb-15 03:30N 30°13' W 093°15'0 0.0
2018-Feb-15 03:00N 30°13' W 093°15'0 0.0
2018-Feb-15 02:22N 30°13' W 093°15'0 0.0
2018-Feb-15 02:00N 30°13' W 093°15'0 0.0
2018-Feb-15 01:30N 30°13' W 093°15'0 0.0
2018-Feb-15 01:00N 30°13' W 093°15'0 0.0
2018-Feb-15 00:30N 30°13' W 093°15'3 6.0
2018-Feb-15 00:00N 30°11' W 093°18'2 4.3
2018-Feb-14 23:30N 30°09' W 093°20'0 0.0
2018-Feb-14 22:58N 30°09' W 093°20'1 1.9
2018-Feb-14 22:30N 30°10' W 093°19'2 3.6
2018-Feb-14 22:00N 30°11' W 093°18'2 4.8
2018-Feb-14 21:30N 30°13' W 093°16'1 1.9
2018-Feb-14 21:00N 30°14' W 093°16'0 0.9
2018-Feb-14 20:30N 30°14' W 093°15'1 2.0
2018-Feb-14 20:00N 30°13' W 093°15'0 0.0
2018-Feb-14 15:06N 30°13' W 093°15'0 0.0
2018-Feb-14 14:47N 30°13' W 093°15'0 0.0
2018-Feb-14 14:29N 30°13' W 093°15'0 0.0
2018-Feb-14 13:59N 30°13' W 093°15'0 0.0
2018-Feb-14 13:26N 30°13' W 093°15'0 0.0
2018-Feb-14 12:56N 30°13' W 093°15'0 0.0
2018-Feb-14 12:25N 30°13' W 093°15'0 0.0
2018-Feb-14 11:58N 30°13' W 093°15'0 0.0
2018-Feb-14 11:09N 30°13' W 093°15'0 0.0
2018-Feb-14 11:00N 30°13' W 093°15'0 0.0
2018-Feb-14 10:21N 30°13' W 093°15'0 0.0
2018-Feb-14 09:58N 30°13' W 093°15'0 0.0
2018-Feb-14 09:27N 30°13' W 093°15'0 0.0
2018-Feb-14 08:59N 30°13' W 093°15'0 0.0
2018-Feb-14 08:30N 30°13' W 093°15'0 0.0
2018-Feb-14 07:58N 30°13' W 093°15'0 0.0
2018-Feb-14 07:26N 30°13' W 093°15'0 0.0
2018-Feb-14 06:59N 30°13' W 093°15'0 0.0
2018-Feb-14 06:22N 30°13' W 093°15'0 0.0
2018-Feb-14 05:56N 30°13' W 093°15'0 0.0
2018-Feb-14 05:28N 30°13' W 093°15'0 0.0
2018-Feb-14 04:52N 30°13' W 093°15'0 0.0
2018-Feb-14 04:27N 30°13' W 093°15'0 0.0
2018-Feb-14 03:58N 30°13' W 093°15'0 0.0
2018-Feb-14 03:30N 30°13' W 093°15'0 0.0
2018-Feb-14 03:00N 30°13' W 093°15'0 0.0
2018-Feb-14 02:27N 30°13' W 093°15'0 0.0
2018-Feb-14 02:00N 30°13' W 093°15'0 0.0
2018-Feb-14 01:30N 30°13' W 093°15'0 0.0
2018-Feb-14 01:00N 30°13' W 093°15'0 0.0
2018-Feb-14 00:29N 30°13' W 093°15'0 0.0
2018-Feb-13 23:59N 30°13' W 093°15'0 0.0
2018-Feb-13 23:30N 30°13' W 093°15'0 0.0
2018-Feb-13 23:00N 30°13' W 093°15'3 5.8
2018-Feb-13 22:30N 30°11' W 093°18'2 4.3
2018-Feb-13 22:00N 30°09' W 093°20'0 0.7
2018-Feb-13 21:31N 30°09' W 093°20'1 1.9
2018-Feb-13 21:01N 30°08' W 093°20'3 5.3
2018-Feb-13 20:31N 30°11' W 093°19'0 0.1
2018-Feb-13 20:00N 30°11' W 093°19'0 0.0
2018-Feb-13 19:30N 30°11' W 093°19'0 0.0
2018-Feb-13 19:00N 30°11' W 093°19'0 0.0
2018-Feb-13 18:30N 30°11' W 093°19'0 0.0
2018-Feb-13 18:00N 30°11' W 093°19'0 0.0
2018-Feb-13 17:30N 30°11' W 093°19'0 0.0
2018-Feb-13 17:00N 30°11' W 093°19'0 0.0
2018-Feb-13 16:30N 30°11' W 093°19'0 0.0
2018-Feb-13 15:59N 30°11' W 093°19'0 0.0
2018-Feb-13 15:30N 30°11' W 093°19'0 0.0
2018-Feb-13 14:59N 30°11' W 093°19'0 0.0
2018-Feb-13 14:29N 30°11' W 093°19'0 0.0
2018-Feb-13 14:00N 30°11' W 093°19'0 0.0
2018-Feb-13 13:30N 30°11' W 093°19'0 0.0
2018-Feb-13 12:54N 30°11' W 093°19'0 0.0
2018-Feb-13 12:27N 30°11' W 093°19'0 0.0
2018-Feb-13 12:00N 30°11' W 093°19'0 0.0
2018-Feb-13 11:19N 30°11' W 093°19'0 0.0
2018-Feb-13 10:52N 30°11' W 093°19'0 0.0
2018-Feb-13 10:30N 30°11' W 093°19'0 0.0
2018-Feb-13 10:00N 30°11' W 093°19'0 0.0
2018-Feb-13 09:25N 30°11' W 093°19'0 0.0
2018-Feb-13 08:57N 30°11' W 093°19'0 0.0
2018-Feb-13 08:29N 30°11' W 093°19'0 0.0
2018-Feb-13 07:59N 30°11' W 093°19'0 0.0
2018-Feb-13 07:28N 30°11' W 093°19'0 0.0
2018-Feb-13 07:00N 30°11' W 093°19'0 0.0
2018-Feb-13 06:30N 30°11' W 093°19'0 0.0
2018-Feb-13 05:45N 30°11' W 093°19'0 0.0
2018-Feb-13 05:28N 30°11' W 093°19'0 0.0
2018-Feb-13 04:57N 30°11' W 093°19'2 4.2
2018-Feb-13 04:30N 30°09' W 093°20'2 3.8
2018-Feb-13 04:00N 30°07' W 093°20'2 4.8
2018-Feb-13 03:30N 30°10' W 093°19'2 3.9
2018-Feb-13 03:00N 30°11' W 093°18'0 0.9
2018-Feb-13 02:30N 30°12' W 093°18'0 0.0
2018-Feb-13 01:58N 30°12' W 093°18'1 2.9
2018-Feb-13 01:30N 30°11' W 093°19'0 0.0
2018-Feb-13 01:00N 30°11' W 093°19'0 0.0
2018-Feb-13 00:29N 30°11' W 093°19'0 0.0
2018-Feb-12 23:59N 30°11' W 093°19'0 0.0
2018-Feb-12 23:29N 30°11' W 093°19'0 0.0
2018-Feb-12 23:00N 30°11' W 093°19'0 0.3
2018-Feb-12 22:30N 30°11' W 093°19'0 0.0
2018-Feb-12 22:00N 30°11' W 093°19'1 1.1
2018-Feb-12 21:29N 30°11' W 093°18'1 1.6
2018-Feb-12 20:55N 30°10' W 093°19'0 0.2
2018-Feb-12 20:30N 30°10' W 093°19'1 1.3
2018-Feb-12 20:00N 30°11' W 093°19'0 0.0
2018-Feb-12 19:23N 30°11' W 093°19'0 0.0
2018-Feb-12 18:57N 30°11' W 093°19'0 0.0
2018-Feb-12 18:30N 30°11' W 093°19'0 0.0
2018-Feb-12 17:57N 30°11' W 093°19'0 0.0
2018-Feb-12 17:28N 30°11' W 093°19'0 0.0
2018-Feb-12 17:00N 30°11' W 093°19'0 0.0
2018-Feb-12 16:29N 30°11' W 093°19'0 0.0
2018-Feb-12 16:00N 30°11' W 093°19'0 0.0
2018-Feb-12 15:30N 30°11' W 093°19'0 0.0
2018-Feb-12 14:59N 30°11' W 093°19'0 0.0
2018-Feb-12 14:22N 30°11' W 093°19'0 0.0
2018-Feb-12 14:00N 30°11' W 093°19'0 0.0
2018-Feb-12 13:25N 30°11' W 093°19'0 0.0
2018-Feb-12 12:49N 30°11' W 093°19'0 0.0
2018-Feb-12 12:30N 30°11' W 093°19'0 0.0
2018-Feb-12 11:58N 30°11' W 093°19'0 0.0
2018-Feb-12 11:26N 30°11' W 093°19'0 0.0
2018-Feb-12 10:54N 30°11' W 093°19'0 0.0
2018-Feb-12 10:30N 30°11' W 093°19'0 0.0
2018-Feb-12 09:54N 30°11' W 093°19'0 0.0
2018-Feb-12 09:25N 30°11' W 093°19'0 0.0
2018-Feb-12 09:00N 30°11' W 093°19'0 0.0
2018-Feb-12 08:28N 30°11' W 093°19'0 0.0
2018-Feb-12 07:52N 30°11' W 093°19'0 0.0
2018-Feb-12 07:18N 30°11' W 093°19'0 0.0
2018-Feb-12 06:59N 30°11' W 093°19'0 0.0
2018-Feb-12 06:14N 30°11' W 093°19'0 0.0
2018-Feb-12 05:55N 30°11' W 093°19'0 0.0
2018-Feb-12 05:28N 30°11' W 093°19'0 0.0
2018-Feb-12 05:00N 30°11' W 093°19'0 0.0
2018-Feb-12 04:27N 30°11' W 093°19'  
Track history (hours):
 
Tides and Currents Weather Stations Pressure Air Temp Water Temp Dewpoint Dewpoint Depression Visibility Wind Speed Wind Dir Waves Ship Positions

Carl

Owner: POINT COMFORT TOWING CO., INC., POINT COMFORT, TX. More information available from US FCC via Universal Licensing System and Coast Guard Vessel Documentation Center.

Last reported at 2018-Feb-22 04:20 UTC. Time now 2018-Feb-22 17:15 UTC.
Position N 30°11' W 093°19'.

Length 32 m; draft 4 m.

Type: Towing. MMSI: 367556330.

Date/timePositionNaut miles runAvg speedWind from/ knotsBaromVisibWave heightAir tempDewpointWater temp
2018-Feb-22 04:20N 30°11' W 093°19'0 0.0
2018-Feb-22 03:37N 30°11' W 093°19'0 0.0
2018-Feb-22 00:30N 30°11' W 093°19'0 0.0
2018-Feb-22 00:00N 30°11' W 093°19'1 1.8
2018-Feb-21 23:18N 30°12' W 093°18'1 1.3
2018-Feb-21 22:48N 30°11' W 093°18'0 0.6
2018-Feb-21 22:20N 30°11' W 093°19'2 4.6
2018-Feb-21 22:00N 30°10' W 093°19'1 0.7
2018-Feb-21 20:05N 30°11' W 093°19'0 0.0
2018-Feb-21 19:19N 30°11' W 093°19'0 0.0
2018-Feb-21 18:58N 30°11' W 093°19'0 0.0
2018-Feb-21 18:28N 30°11' W 093°19'0 0.0
2018-Feb-21 18:00N 30°11' W 093°19'0 0.0
2018-Feb-21 17:30N 30°11' W 093°19'0 0.0
2018-Feb-21 16:56N 30°11' W 093°19'0 0.0
2018-Feb-21 16:26N 30°11' W 093°19'0 0.0
2018-Feb-21 15:58N 30°11' W 093°19'0 0.1
2018-Feb-21 15:30N 30°11' W 093°19'0 0.2
2018-Feb-21 15:00N 30°11' W 093°19'1 1.4
2018-Feb-21 14:30N 30°10' W 093°19'1 1.8
2018-Feb-21 14:00N 30°09' W 093°20'2 3.1
2018-Feb-21 13:30N 30°11' W 093°19'4 7.1
2018-Feb-21 13:00N 30°13' W 093°15'0 0.0
2018-Feb-21 12:29N 30°13' W 093°15'0 0.0
2018-Feb-21 12:00N 30°13' W 093°15'0 0.0
2018-Feb-21 11:30N 30°13' W 093°15'0 0.0
2018-Feb-21 11:00N 30°13' W 093°15'0 0.0
2018-Feb-21 10:28N 30°13' W 093°15'0 0.0
2018-Feb-21 10:00N 30°13' W 093°15'0 0.0
2018-Feb-21 09:30N 30°13' W 093°15'0 0.0
2018-Feb-21 09:00N 30°13' W 093°15'0 0.0
2018-Feb-21 08:30N 30°13' W 093°15'0 0.0
2018-Feb-21 07:54N 30°13' W 093°15'0 0.0
2018-Feb-21 07:30N 30°13' W 093°15'0 0.0
2018-Feb-21 06:51N 30°13' W 093°15'0 0.0
2018-Feb-21 06:30N 30°13' W 093°15'0 0.0
2018-Feb-21 05:50N 30°13' W 093°15'0 0.0
2018-Feb-21 05:30N 30°13' W 093°15'0 0.0
2018-Feb-21 05:00N 30°13' W 093°15'0 0.0
2018-Feb-21 04:30N 30°13' W 093°15'0 0.0
2018-Feb-21 04:00N 30°13' W 093°15'0 0.0
2018-Feb-21 03:30N 30°13' W 093°15'0 0.0
2018-Feb-21 03:00N 30°13' W 093°15'2 4.9
2018-Feb-21 02:30N 30°11' W 093°18'1 1.2
2018-Feb-21 02:00N 30°11' W 093°18'2 3.4
2018-Feb-21 01:30N 30°10' W 093°19'2 3.6
2018-Feb-21 01:00N 30°08' W 093°20'2 5.0
2018-Feb-21 00:30N 30°05' W 093°20'2 4.9
2018-Feb-21 00:00N 30°03' W 093°20'2 3.3
2018-Feb-20 23:30N 30°05' W 093°20'4 8.0
2018-Feb-20 23:00N 30°09' W 093°20'2 4.7
2018-Feb-20 22:31N 30°11' W 093°19'4 7.4
2018-Feb-20 22:00N 30°13' W 093°15'0 0.0
2018-Feb-20 21:30N 30°13' W 093°15'0 0.0
2018-Feb-20 21:00N 30°13' W 093°15'0 0.0
2018-Feb-20 20:30N 30°13' W 093°15'0 0.0
2018-Feb-20 20:00N 30°13' W 093°15'0 0.0
2018-Feb-20 19:30N 30°13' W 093°15'0 0.0
2018-Feb-20 19:00N 30°13' W 093°15'0 0.0
2018-Feb-20 18:30N 30°13' W 093°15'0 0.0
2018-Feb-20 18:00N 30°13' W 093°15'0 0.0
2018-Feb-20 17:30N 30°13' W 093°15'0 0.3
2018-Feb-20 17:00N 30°13' W 093°15'0 0.0
2018-Feb-20 16:30N 30°13' W 093°15'0 0.0
2018-Feb-20 16:00N 30°13' W 093°15'0 0.0
2018-Feb-20 15:30N 30°13' W 093°15'1 1.4
2018-Feb-20 15:00N 30°12' W 093°16'4 8.7
2018-Feb-20 14:30N 30°09' W 093°20'1 2.9
2018-Feb-20 14:00N 30°11' W 093°19'0 0.0
2018-Feb-20 13:30N 30°11' W 093°19'0 0.3
2018-Feb-20 13:00N 30°11' W 093°19'0 0.0
2018-Feb-20 12:29N 30°11' W 093°19'0 0.0
2018-Feb-20 11:58N 30°11' W 093°19'0 0.0
2018-Feb-20 11:30N 30°11' W 093°19'0 0.0
2018-Feb-20 11:00N 30°11' W 093°19'0 0.0
2018-Feb-20 10:29N 30°11' W 093°19'0 0.0
2018-Feb-20 10:00N 30°11' W 093°19'0 0.0
2018-Feb-20 09:30N 30°11' W 093°19'0 0.0
2018-Feb-20 08:59N 30°11' W 093°19'0 0.0
2018-Feb-20 08:30N 30°11' W 093°19'0 0.0
2018-Feb-20 07:45N 30°11' W 093°19'0 0.0
2018-Feb-20 07:26N 30°11' W 093°19'0 0.0
2018-Feb-20 07:00N 30°11' W 093°19'0 0.0
2018-Feb-20 06:29N 30°11' W 093°19'0 0.0
2018-Feb-20 05:59N 30°11' W 093°19'0 0.0
2018-Feb-20 05:29N 30°11' W 093°19'0 0.0
2018-Feb-20 05:00N 30°11' W 093°19'0 0.0
2018-Feb-20 04:30N 30°11' W 093°19'0 0.0
2018-Feb-20 03:59N 30°11' W 093°19'0 0.0
2018-Feb-20 03:30N 30°11' W 093°19'0 0.0
2018-Feb-20 03:00N 30°11' W 093°19'0 0.0
2018-Feb-20 02:30N 30°11' W 093°19'2 3.2
2018-Feb-20 02:00N 30°09' W 093°20'0 0.2
2018-Feb-20 01:30N 30°09' W 093°20'2 3.5
2018-Feb-20 01:00N 30°08' W 093°20'3 5.2
2018-Feb-20 00:31N 30°05' W 093°20'2 4.8
2018-Feb-20 00:00N 30°03' W 093°20'1 2.1
2018-Feb-19 23:29N 30°04' W 093°20'3 7.1
2018-Feb-19 23:00N 30°07' W 093°20'4 7.9
2018-Feb-19 22:30N 30°11' W 093°19'3 6.6
2018-Feb-19 21:59N 30°13' W 093°15'0 0.0
2018-Feb-19 21:30N 30°13' W 093°15'0 0.0
2018-Feb-19 21:00N 30°13' W 093°15'0 0.0
2018-Feb-19 20:27N 30°13' W 093°15'0 0.0
2018-Feb-19 20:00N 30°13' W 093°15'0 0.0
2018-Feb-19 19:30N 30°13' W 093°15'0 0.0
2018-Feb-19 19:00N 30°13' W 093°15'0 0.0
2018-Feb-19 18:24N 30°13' W 093°15'0 0.0
2018-Feb-19 17:59N 30°13' W 093°15'0 0.0
2018-Feb-19 17:30N 30°13' W 093°15'0 0.0
2018-Feb-19 16:57N 30°13' W 093°15'0 0.0
2018-Feb-19 16:26N 30°13' W 093°15'0 0.0
2018-Feb-19 15:58N 30°13' W 093°15'0 0.0
2018-Feb-19 15:30N 30°13' W 093°15'0 0.0
2018-Feb-19 15:00N 30°13' W 093°15'0 0.0
2018-Feb-19 14:26N 30°13' W 093°15'0 0.0
2018-Feb-19 13:55N 30°13' W 093°15'0 0.0
2018-Feb-19 13:30N 30°13' W 093°15'0 0.0
2018-Feb-19 13:00N 30°13' W 093°15'0 0.0
2018-Feb-19 12:30N 30°13' W 093°15'0 0.0
2018-Feb-19 12:00N 30°13' W 093°15'0 0.0
2018-Feb-19 11:30N 30°13' W 093°15'0 0.0
2018-Feb-19 11:00N 30°13' W 093°15'0 0.0
2018-Feb-19 10:30N 30°13' W 093°15'0 0.0
2018-Feb-19 10:00N 30°13' W 093°15'0 0.0
2018-Feb-19 09:29N 30°13' W 093°15'0 0.0
2018-Feb-19 09:00N 30°13' W 093°15'0 0.0
2018-Feb-19 08:30N 30°13' W 093°15'0 0.0
2018-Feb-19 08:00N 30°13' W 093°15'0 0.0
2018-Feb-19 07:30N 30°13' W 093°15'0 0.0
2018-Feb-19 07:00N 30°13' W 093°15'0 0.0
2018-Feb-19 06:30N 30°13' W 093°15'0 0.0
2018-Feb-19 06:00N 30°13' W 093°15'0 0.0
2018-Feb-19 05:30N 30°13' W 093°15'0 0.0
2018-Feb-19 05:00N 30°13' W 093°15'0 0.0
2018-Feb-19 04:30N 30°13' W 093°15'0 0.0
2018-Feb-19 04:00N 30°13' W 093°15'0 0.0
2018-Feb-19 03:30N 30°13' W 093°15'0 0.0
2018-Feb-19 03:00N 30°13' W 093°15'0 0.0
2018-Feb-19 02:30N 30°13' W 093°15'0 0.0
2018-Feb-19 02:00N 30°13' W 093°15'0 0.0
2018-Feb-19 01:30N 30°13' W 093°15'0 0.0
2018-Feb-19 01:00N 30°13' W 093°15'0 0.0
2018-Feb-19 00:30N 30°13' W 093°15'0 0.0
2018-Feb-19 00:00N 30°13' W 093°15'0 0.0
2018-Feb-18 23:30N 30°13' W 093°15'0 0.0
2018-Feb-18 23:00N 30°13' W 093°15'0 0.0
2018-Feb-18 22:30N 30°13' W 093°15'0 0.0
2018-Feb-18 21:59N 30°13' W 093°15'1 2.6
2018-Feb-18 21:30N 30°12' W 093°17'3 1.9
2018-Feb-18 19:44N 30°10' W 093°19'0 1.5
2018-Feb-18 19:30N 30°09' W 093°20'1 2.9
2018-Feb-18 19:00N 30°11' W 093°19'0 0.0
2018-Feb-18 18:30N 30°11' W 093°19'0 0.0
2018-Feb-18 18:00N 30°11' W 093°19'0 0.0
2018-Feb-18 17:30N 30°11' W 093°19'0 0.0
2018-Feb-18 17:00N 30°11' W 093°19'0 0.0
2018-Feb-18 16:30N 30°11' W 093°19'0 0.0
2018-Feb-18 16:00N 30°11' W 093°19'0 0.0
2018-Feb-18 15:30N 30°11' W 093°19'0 0.0
2018-Feb-18 14:59N 30°11' W 093°19'0 0.0
2018-Feb-18 14:30N 30°11' W 093°19'0 0.0
2018-Feb-18 14:00N 30°11' W 093°19'0 0.0
2018-Feb-18 13:30N 30°11' W 093°19'0 0.0
2018-Feb-18 13:00N 30°11' W 093°19'0 0.0
2018-Feb-18 12:30N 30°11' W 093°19'0 0.0
2018-Feb-18 12:00N 30°11' W 093°19'0 0.0
2018-Feb-18 11:30N 30°11' W 093°19'0 0.0
2018-Feb-18 11:00N 30°11' W 093°19'0 0.0
2018-Feb-18 10:30N 30°11' W 093°19'0 0.0
2018-Feb-18 09:56N 30°11' W 093°19'0 0.0
2018-Feb-18 09:30N 30°11' W 093°19'0 0.0
2018-Feb-18 09:00N 30°11' W 093°19'0 0.0
2018-Feb-18 08:28N 30°11' W 093°19'0 0.0
2018-Feb-18 08:00N 30°11' W 093°19'0 0.0
2018-Feb-18 07:30N 30°11' W 093°19'0 0.0
2018-Feb-18 07:00N 30°11' W 093°19'0 0.0
2018-Feb-18 06:29N 30°11' W 093°19'0 0.0
2018-Feb-18 06:00N 30°11' W 093°19'0 0.0
2018-Feb-18 05:30N 30°11' W 093°19'0 0.0
2018-Feb-18 05:00N 30°11' W 093°19'0 0.0
2018-Feb-18 04:30N 30°11' W 093°19'0 0.0
2018-Feb-18 03:59N 30°11' W 093°19'0 0.0
2018-Feb-18 03:29N 30°11' W 093°19'0 0.0
2018-Feb-18 03:00N 30°11' W 093°19'0 0.0
2018-Feb-18 02:30N 30°11' W 093°19'1 1.2
2018-Feb-18 02:00N 30°10' W 093°19'1 1.4
2018-Feb-18 01:30N 30°10' W 093°20'0 0.0
2018-Feb-18 01:00N 30°10' W 093°20'1 1.4
2018-Feb-18 00:30N 30°09' W 093°20'3 5.6
2018-Feb-18 00:00N 30°06' W 093°20'3 5.8
2018-Feb-17 23:31N 30°03' W 093°20'3 5.2
2018-Feb-17 23:00N 30°06' W 093°20'4 8.7
2018-Feb-17 22:30N 30°10' W 093°19'4 8.2
2018-Feb-17 22:00N 30°13' W 093°15'0 0.0
2018-Feb-17 21:30N 30°13' W 093°15'0 0.0
2018-Feb-17 21:00N 30°13' W 093°15'0 0.0
2018-Feb-17 20:29N 30°13' W 093°15'0 0.4
2018-Feb-17 19:59N 30°13' W 093°15'0 0.0
2018-Feb-17 18:09N 30°13' W 093°15'0 0.0
2018-Feb-17 18:00N 30°13' W 093°15'0 0.0
2018-Feb-17 17:30N 30°13' W 093°15'0 0.0
2018-Feb-17 17:00N 30°13' W 093°15'0 0.0
2018-Feb-17 16:29N 30°13' W 093°15'0 0.0
2018-Feb-17 16:00N 30°13' W 093°15'0 0.0
2018-Feb-17 15:30N 30°13' W 093°15'0 0.0
2018-Feb-17 15:00N 30°13' W 093°15'0 0.0
2018-Feb-17 14:30N 30°13' W 093°15'0 0.0
2018-Feb-17 14:00N 30°13' W 093°15'0 0.0
2018-Feb-17 13:30N 30°13' W 093°15'0 0.0
2018-Feb-17 13:00N 30°13' W 093°15'0 0.0
2018-Feb-17 12:30N 30°13' W 093°15'0 0.0
2018-Feb-17 12:00N 30°13' W 093°15'0 0.0
2018-Feb-17 11:30N 30°13' W 093°15'0 0.0
2018-Feb-17 11:00N 30°13' W 093°15'0 0.0
2018-Feb-17 10:30N 30°13' W 093°15'0 0.0
2018-Feb-17 10:00N 30°13' W 093°15'0 0.0
2018-Feb-17 09:30N 30°13' W 093°15'0 0.0
2018-Feb-17 09:00N 30°13' W 093°15'0 0.0
2018-Feb-17 08:30N 30°13' W 093°15'0 0.0
2018-Feb-17 08:00N 30°13' W 093°15'0 0.0
2018-Feb-17 07:30N 30°13' W 093°15'0 0.0
2018-Feb-17 07:00N 30°13' W 093°15'0 0.0
2018-Feb-17 06:30N 30°13' W 093°15'0 0.0
2018-Feb-17 06:00N 30°13' W 093°15'0 0.0
2018-Feb-17 05:30N 30°13' W 093°15'0 0.0
2018-Feb-17 05:00N 30°13' W 093°15'0 0.0
2018-Feb-17 04:30N 30°13' W 093°15'0 0.0
2018-Feb-17 04:00N 30°13' W 093°15'0 0.0
2018-Feb-17 03:30N 30°13' W 093°15'0 0.0
2018-Feb-17 02:59N 30°13' W 093°15'0 0.0
2018-Feb-17 02:30N 30°13' W 093°15'0 0.0
2018-Feb-17 02:00N 30°13' W 093°15'0 0.0
2018-Feb-17 01:28N 30°13' W 093°15'0 0.0
2018-Feb-17 01:00N 30°13' W 093°15'0 0.0
2018-Feb-17 00:30N 30°13' W 093°15'0 0.0
2018-Feb-17 00:00N 30°13' W 093°15'0 0.0
2018-Feb-16 23:30N 30°13' W 093°15'0 0.0
2018-Feb-16 23:00N 30°13' W 093°15'0 0.0
2018-Feb-16 22:30N 30°13' W 093°15'0 0.0
2018-Feb-16 22:00N 30°13' W 093°15'0 0.0
2018-Feb-16 21:28N 30°13' W 093°15'0 0.0
2018-Feb-16 20:54N 30°13' W 093°15'0 0.0
2018-Feb-16 20:30N 30°13' W 093°15'0 0.0
2018-Feb-16 19:52N 30°13' W 093°15'0 0.0
2018-Feb-16 19:23N 30°13' W 093°15'2 6.2
2018-Feb-16 19:00N 30°12' W 093°18'1 0.7
2018-Feb-16 17:02N 30°11' W 093°19'0 0.2
2018-Feb-16 17:00N 30°11' W 093°19'4 7.4
2018-Feb-16 16:30N 30°13' W 093°15'0 0.0
2018-Feb-16 16:00N 30°13' W 093°15'0 0.0
2018-Feb-16 15:30N 30°13' W 093°15'0 0.0
2018-Feb-16 15:00N 30°13' W 093°15'0 0.0
2018-Feb-16 14:30N 30°13' W 093°15'0 0.0
2018-Feb-16 14:00N 30°13' W 093°15'0 0.0
2018-Feb-16 13:30N 30°13' W 093°15'0 0.0
2018-Feb-16 13:00N 30°13' W 093°15'0 0.0
2018-Feb-16 12:30N 30°13' W 093°15'0 0.0
2018-Feb-16 12:00N 30°13' W 093°15'0 0.0
2018-Feb-16 11:30N 30°13' W 093°15'0 0.0
2018-Feb-16 11:00N 30°13' W 093°15'0 0.0
2018-Feb-16 10:30N 30°13' W 093°15'0 0.0
2018-Feb-16 10:00N 30°13' W 093°15'0 0.0
2018-Feb-16 09:30N 30°13' W 093°15'0 0.0
2018-Feb-16 09:00N 30°13' W 093°15'0 0.0
2018-Feb-16 08:30N 30°13' W 093°15'0 0.0
2018-Feb-16 08:00N 30°13' W 093°15'0 0.0
2018-Feb-16 07:30N 30°13' W 093°15'0 0.0
2018-Feb-16 07:00N 30°13' W 093°15'0 0.0
2018-Feb-16 06:30N 30°13' W 093°15'0 0.0
2018-Feb-16 06:00N 30°13' W 093°15'0 0.0
2018-Feb-16 05:30N 30°13' W 093°15'0 0.0
2018-Feb-16 05:00N 30°13' W 093°15'0 0.0
2018-Feb-16 04:30N 30°13' W 093°15'0 0.0
2018-Feb-16 04:00N 30°13' W 093°15'0 0.0
2018-Feb-16 03:30N 30°13' W 093°15'0 0.0
2018-Feb-16 03:00N 30°13' W 093°15'0 0.0
2018-Feb-16 02:30N 30°13' W 093°15'0 0.0
2018-Feb-16 02:00N 30°13' W 093°15'0 0.0
2018-Feb-16 01:30N 30°13' W 093°15'0 0.0
2018-Feb-16 01:00N 30°13' W 093°15'0 0.0
2018-Feb-16 00:28N 30°13' W 093°15'0 0.0
2018-Feb-16 00:00N 30°13' W 093°15'0 0.0
2018-Feb-15 23:30N 30°13' W 093°15'0 0.0
2018-Feb-15 23:00N 30°13' W 093°15'0 0.0
2018-Feb-15 22:29N 30°13' W 093°15'0 0.0
2018-Feb-15 21:59N 30°13' W 093°15'0 0.0
2018-Feb-15 21:29N 30°13' W 093°15'0 0.0
2018-Feb-15 21:00N 30°13' W 093°15'0 0.0
2018-Feb-15 20:16N 30°13' W 093°15'0 0.0
2018-Feb-15 19:57N 30°13' W 093°15'0 0.0
2018-Feb-15 19:29N 30°13' W 093°15'0 0.0
2018-Feb-15 18:59N 30°13' W 093°15'0 0.0
2018-Feb-15 18:30N 30°13' W 093°15'0 0.0
2018-Feb-15 18:00N 30°13' W 093°15'0 0.0
2018-Feb-15 17:30N 30°13' W 093°15'0 0.0
2018-Feb-15 17:00N 30°13' W 093°15'0 0.0
2018-Feb-15 16:30N 30°13' W 093°15'0 0.0
2018-Feb-15 16:00N 30°13' W 093°15'0 0.0
2018-Feb-15 15:30N 30°13' W 093°15'0 0.0
2018-Feb-15 15:00N 30°13' W 093°15'0 0.0
2018-Feb-15 14:30N 30°13' W 093°15'0 0.0
2018-Feb-15 14:00N 30°13' W 093°15'0 0.0
2018-Feb-15 13:30N 30°13' W 093°15'0 0.0
2018-Feb-15 13:00N 30°13' W 093°15'0 0.0
2018-Feb-15 12:30N 30°13' W 093°15'0 0.0
2018-Feb-15 12:00N 30°13' W 093°15'0 0.0
2018-Feb-15 11:30N 30°13' W 093°15'0 0.0
2018-Feb-15 11:00N 30°13' W 093°15'0 0.0
2018-Feb-15 10:29N 30°13' W 093°15'0 0.0
2018-Feb-15 10:00N 30°13' W 093°15'0 0.0
2018-Feb-15 09:30N 30°13' W 093°15'0 0.0
2018-Feb-15 09:00N 30°13' W 093°15'0 0.0
2018-Feb-15 08:30N 30°13' W 093°15'0 0.0
2018-Feb-15 08:00N 30°13' W 093°15'0 0.0
2018-Feb-15 07:30N 30°13' W 093°15'0 0.0
2018-Feb-15 07:00N 30°13' W 093°15'0 0.0
2018-Feb-15 06:30N 30°13' W 093°15'0 0.0
2018-Feb-15 06:00N 30°13' W 093°15'0 0.0
2018-Feb-15 05:30N 30°13' W 093°15'0 0.0
2018-Feb-15 05:00N 30°13' W 093°15'0 0.0
2018-Feb-15 04:30N 30°13' W 093°15'0 0.0
2018-Feb-15 04:00N 30°13' W 093°15'0 0.0
2018-Feb-15 03:30N 30°13' W 093°15'0 0.0
2018-Feb-15 03:00N 30°13' W 093°15'0 0.0
2018-Feb-15 02:22N 30°13' W 093°15'0 0.0
2018-Feb-15 02:00N 30°13' W 093°15'0 0.0
2018-Feb-15 01:30N 30°13' W 093°15'0 0.0
2018-Feb-15 01:00N 30°13' W 093°15'0 0.0
2018-Feb-15 00:30N 30°13' W 093°15'3 6.0
2018-Feb-15 00:00N 30°11' W 093°18'2 4.3
2018-Feb-14 23:30N 30°09' W 093°20'0 0.0
2018-Feb-14 22:58N 30°09' W 093°20'1 1.9
2018-Feb-14 22:30N 30°10' W 093°19'2 3.6
2018-Feb-14 22:00N 30°11' W 093°18'2 4.8
2018-Feb-14 21:30N 30°13' W 093°16'1 1.9
2018-Feb-14 21:00N 30°14' W 093°16'0 0.9
2018-Feb-14 20:30N 30°14' W 093°15'1 2.0
2018-Feb-14 20:00N 30°13' W 093°15'0 0.0
2018-Feb-14 15:06N 30°13' W 093°15'0 0.0
2018-Feb-14 14:47N 30°13' W 093°15'0 0.0
2018-Feb-14 14:29N 30°13' W 093°15'0 0.0
2018-Feb-14 13:59N 30°13' W 093°15'0 0.0
2018-Feb-14 13:26N 30°13' W 093°15'0 0.0
2018-Feb-14 12:56N 30°13' W 093°15'0 0.0
2018-Feb-14 12:25N 30°13' W 093°15'0 0.0
2018-Feb-14 11:58N 30°13' W 093°15'0 0.0
2018-Feb-14 11:09N 30°13' W 093°15'0 0.0
2018-Feb-14 11:00N 30°13' W 093°15'0 0.0
2018-Feb-14 10:21N 30°13' W 093°15'0 0.0
2018-Feb-14 09:58N 30°13' W 093°15'0 0.0
2018-Feb-14 09:27N 30°13' W 093°15'0 0.0
2018-Feb-14 08:59N 30°13' W 093°15'0 0.0
2018-Feb-14 08:30N 30°13' W 093°15'0 0.0
2018-Feb-14 07:58N 30°13' W 093°15'0 0.0
2018-Feb-14 07:26N 30°13' W 093°15'0 0.0
2018-Feb-14 06:59N 30°13' W 093°15'0 0.0
2018-Feb-14 06:22N 30°13' W 093°15'0 0.0
2018-Feb-14 05:56N 30°13' W 093°15'0 0.0
2018-Feb-14 05:28N 30°13' W 093°15'0 0.0
2018-Feb-14 04:52N 30°13' W 093°15'0 0.0
2018-Feb-14 04:27N 30°13' W 093°15'0 0.0
2018-Feb-14 03:58N 30°13' W 093°15'0 0.0
2018-Feb-14 03:30N 30°13' W 093°15'0 0.0
2018-Feb-14 03:00N 30°13' W 093°15'0 0.0
2018-Feb-14 02:27N 30°13' W 093°15'0 0.0
2018-Feb-14 02:00N 30°13' W 093°15'0 0.0
2018-Feb-14 01:30N 30°13' W 093°15'0 0.0
2018-Feb-14 01:00N 30°13' W 093°15'0 0.0
2018-Feb-14 00:29N 30°13' W 093°15'0 0.0
2018-Feb-13 23:59N 30°13' W 093°15'0 0.0
2018-Feb-13 23:30N 30°13' W 093°15'0 0.0
2018-Feb-13 23:00N 30°13' W 093°15'3 5.8
2018-Feb-13 22:30N 30°11' W 093°18'2 4.3
2018-Feb-13 22:00N 30°09' W 093°20'0 0.7
2018-Feb-13 21:31N 30°09' W 093°20'1 1.9
2018-Feb-13 21:01N 30°08' W 093°20'3 5.3
2018-Feb-13 20:31N 30°11' W 093°19'0 0.1
2018-Feb-13 20:00N 30°11' W 093°19'0 0.0
2018-Feb-13 19:30N 30°11' W 093°19'0 0.0
2018-Feb-13 19:00N 30°11' W 093°19'0 0.0
2018-Feb-13 18:30N 30°11' W 093°19'0 0.0
2018-Feb-13 18:00N 30°11' W 093°19'0 0.0
2018-Feb-13 17:30N 30°11' W 093°19'0 0.0
2018-Feb-13 17:00N 30°11' W 093°19'0 0.0
2018-Feb-13 16:30N 30°11' W 093°19'0 0.0
2018-Feb-13 15:59N 30°11' W 093°19'0 0.0
2018-Feb-13 15:30N 30°11' W 093°19'0 0.0
2018-Feb-13 14:59N 30°11' W 093°19'0 0.0
2018-Feb-13 14:29N 30°11' W 093°19'0 0.0
2018-Feb-13 14:00N 30°11' W 093°19'0 0.0
2018-Feb-13 13:30N 30°11' W 093°19'0 0.0
2018-Feb-13 12:54N 30°11' W 093°19'0 0.0
2018-Feb-13 12:27N 30°11' W 093°19'0 0.0
2018-Feb-13 12:00N 30°11' W 093°19'0 0.0
2018-Feb-13 11:19N 30°11' W 093°19'0 0.0
2018-Feb-13 10:52N 30°11' W 093°19'0 0.0
2018-Feb-13 10:30N 30°11' W 093°19'0 0.0
2018-Feb-13 10:00N 30°11' W 093°19'0 0.0
2018-Feb-13 09:25N 30°11' W 093°19'0 0.0
2018-Feb-13 08:57N 30°11' W 093°19'0 0.0
2018-Feb-13 08:29N 30°11' W 093°19'0 0.0
2018-Feb-13 07:59N 30°11' W 093°19'0 0.0
2018-Feb-13 07:28N 30°11' W 093°19'0 0.0
2018-Feb-13 07:00N 30°11' W 093°19'0 0.0
2018-Feb-13 06:30N 30°11' W 093°19'0 0.0
2018-Feb-13 05:45N 30°11' W 093°19'0 0.0
2018-Feb-13 05:28N 30°11' W 093°19'0 0.0
2018-Feb-13 04:57N 30°11' W 093°19'2 4.2
2018-Feb-13 04:30N 30°09' W 093°20'2 3.8
2018-Feb-13 04:00N 30°07' W 093°20'2 4.8
2018-Feb-13 03:30N 30°10' W 093°19'2 3.9
2018-Feb-13 03:00N 30°11' W 093°18'0 0.9
2018-Feb-13 02:30N 30°12' W 093°18'0 0.0
2018-Feb-13 01:58N 30°12' W 093°18'1 2.9
2018-Feb-13 01:30N 30°11' W 093°19'0 0.0
2018-Feb-13 01:00N 30°11' W 093°19'0 0.0
2018-Feb-13 00:29N 30°11' W 093°19'0 0.0
2018-Feb-12 23:59N 30°11' W 093°19'0 0.0
2018-Feb-12 23:29N 30°11' W 093°19'0 0.0
2018-Feb-12 23:00N 30°11' W 093°19'0 0.3
2018-Feb-12 22:30N 30°11' W 093°19'0 0.0
2018-Feb-12 22:00N 30°11' W 093°19'1 1.1
2018-Feb-12 21:29N 30°11' W 093°18'1 1.6
2018-Feb-12 20:55N 30°10' W 093°19'0 0.2
2018-Feb-12 20:30N 30°10' W 093°19'1 1.3
2018-Feb-12 20:00N 30°11' W 093°19'0 0.0
2018-Feb-12 19:23N 30°11' W 093°19'0 0.0
2018-Feb-12 18:57N 30°11' W 093°19'0 0.0
2018-Feb-12 18:30N 30°11' W 093°19'0 0.0
2018-Feb-12 17:57N 30°11' W 093°19'0 0.0
2018-Feb-12 17:28N 30°11' W 093°19'0 0.0
2018-Feb-12 17:00N 30°11' W 093°19'0 0.0
2018-Feb-12 16:29N 30°11' W 093°19'0 0.0
2018-Feb-12 16:00N 30°11' W 093°19'0 0.0
2018-Feb-12 15:30N 30°11' W 093°19'0 0.0
2018-Feb-12 14:59N 30°11' W 093°19'0 0.0
2018-Feb-12 14:22N 30°11' W 093°19'0 0.0
2018-Feb-12 14:00N 30°11' W 093°19'0 0.0
2018-Feb-12 13:25N 30°11' W 093°19'0 0.0
2018-Feb-12 12:49N 30°11' W 093°19'0 0.0
2018-Feb-12 12:30N 30°11' W 093°19'0 0.0
2018-Feb-12 11:58N 30°11' W 093°19'0 0.0
2018-Feb-12 11:26N 30°11' W 093°19'0 0.0
2018-Feb-12 10:54N 30°11' W 093°19'0 0.0
2018-Feb-12 10:30N 30°11' W 093°19'0 0.0
2018-Feb-12 09:54N 30°11' W 093°19'0 0.0
2018-Feb-12 09:25N 30°11' W 093°19'0 0.0
2018-Feb-12 09:00N 30°11' W 093°19'0 0.0
2018-Feb-12 08:28N 30°11' W 093°19'0 0.0
2018-Feb-12 07:52N 30°11' W 093°19'0 0.0
2018-Feb-12 07:18N 30°11' W 093°19'0 0.0
2018-Feb-12 06:59N 30°11' W 093°19'0 0.0
2018-Feb-12 06:14N 30°11' W 093°19'0 0.0
2018-Feb-12 05:55N 30°11' W 093°19'0 0.0
2018-Feb-12 05:28N 30°11' W 093°19'0 0.0
2018-Feb-12 05:00N 30°11' W 093°19'0 0.0
2018-Feb-12 04:27N 30°11' W 093°19'  

Dump ship's entire track history